Flag for Germany Weather past 2 weeks in Garbsen, Lower Saxony, Germany

Now
68 °F

Scattered clouds.


Feels Like: 68 °F
Forecast: 49 / 60 °F
Wind: 17 mph from East

Location: Hannover


UV Index: 0 (Low)

Visibility: N/A


Pressure: 29.80 "Hg

Humidity: 46%

Dew point: 46 °F

Location of GarbsenLocation

Historic Weather in Garbsen

°F

Garbsen temperature yesterday

Maximum temperature yesterday: 63 °F (at 5:20 PM)
Minimum temperature yesterday: 36 °F (at 6:20 AM)
Average temperature yesterday: 49 °F

Past Weeks' High & Low Weather Summary

 TemperatureHumidityPressure
High68 °F (Apr 7, 2:20 PM)100% (Apr 5, 4:50 PM)30.48 "Hg (Apr 5, 4:50 PM)
Low28 °F (Apr 16, 5:20 AM)34% (Apr 17, 3:50 PM)29.71 "Hg (Apr 8, 4:50 AM)
Average49 °F79%30.04 "Hg
* Reported Apr 5 2:20 PM — Apr 20 2:20 PM, Garbsen, Weather by CustomWeather, © 2014

Note: Actual official high and low records may vary slightly from our data, if they occured in-between our weather recording intervals... More about our weather records

Advertising

Historic Weather Conditions — Data for Previous 24 hours

 ConditionsComfort  
Time TempWeatherWind HumidityBarometerVisibility
2:20 PM
Apr 20
66 °FScattered clouds.17 mph49%29.83 "HgN/A
1:50 PM66 °FScattered clouds.18 mph52%29.83 "HgN/A
1:20 PM64 °FScattered clouds.21 mph60%29.83 "HgN/A
12:50 PM63 °FScattered clouds.20 mph64%29.86 "HgN/A
12:20 PM63 °FScattered clouds.20 mph59%29.86 "HgN/A
11:50 AM63 °FPassing clouds.16 mph59%29.89 "HgN/A
11:20 AM61 °FPassing clouds.15 mph63%29.89 "HgN/A
10:50 AM61 °FSunny.15 mph68%29.89 "Hg10 mi
10:20 AM57 °FSunny.13 mph77%29.89 "Hg10 mi
9:50 AM55 °FSunny.13 mph77%29.89 "Hg10 mi
9:20 AM54 °FSunny.12 mph82%29.89 "Hg10 mi
8:50 AM52 °FSunny.10 mph82%29.89 "Hg10 mi
8:20 AM50 °FSunny.9 mph88%29.89 "Hg10 mi
7:50 AM48 °FSunny.6 mph94%29.89 "Hg10 mi
7:20 AM46 °FFog.7 mph93%29.89 "HgN/A
6:50 AM45 °FFog.3 mph93%29.89 "HgN/A
6:20 AM43 °FFog.3 mph100%29.89 "Hg5 mi
5:50 AM45 °FFog.5 mph93%29.89 "Hg5 mi
5:20 AM45 °FClear.5 mph93%29.92 "Hg5 mi
4:50 AM45 °FClear.2 mph100%29.92 "Hg5 mi
4:20 AM45 °FClear.5 mph93%29.92 "Hg5 mi
3:50 AM45 °FClear.5 mph93%29.92 "Hg5 mi
3:20 AM45 °FClear.2 mph100%29.95 "Hg10 mi
2:50 AM46 °FClear.2 mph93%29.95 "Hg10 mi
2:20 AM46 °FClear.2 mph93%29.95 "Hg10 mi
1:50 AM48 °FClear.2 mph87%29.95 "Hg10 mi
1:20 AM50 °FClear.5 mph82%29.98 "Hg10 mi
12:50 AM52 °FClear.9 mph82%29.98 "Hg10 mi
12:20 AM52 °FClear.10 mph82%29.98 "Hg10 mi
11:50 PM
Apr 19
54 °FClear.9 mph82%29.98 "Hg10 mi
11:20 PM54 °FClear.10 mph82%29.98 "Hg10 mi
10:50 PM55 °FClear.12 mph77%29.98 "Hg10 mi
10:20 PM54 °FClear.8 mph82%30.01 "Hg10 mi
9:50 PM54 °FClear.9 mph82%29.98 "Hg10 mi
9:20 PM55 °FClear.8 mph77%30.01 "Hg5 mi
8:50 PM57 °FSunny.9 mph72%30.01 "Hg10 mi
8:20 PM59 °FSunny.13 mph68%30.01 "Hg10 mi
7:50 PM59 °FSunny.10 mph68%29.98 "Hg10 mi
7:20 PM63 °FSunny.12 mph59%29.98 "Hg10 mi
6:50 PM63 °FSunny.13 mph59%29.98 "Hg10 mi
6:20 PM63 °FPassing clouds.13 mph59%30.01 "HgN/A
5:50 PM63 °FPassing clouds.12 mph59%30.01 "HgN/A
5:20 PM63 °FPassing clouds.13 mph59%30.01 "HgN/A
4:50 PM61 °FSunny.15 mph59%30.04 "Hg10 mi
4:20 PM61 °FPassing clouds.17 mph55%30.04 "HgN/A
3:50 PM61 °FPassing clouds.15 mph59%30.04 "HgN/A
3:20 PM59 °FSunny.13 mph63%30.07 "Hg10 mi
Weather by CustomWeather, © 2014

See weather overview